Weather History for Whiteman AFB, MO

Change the Weather History Date:

Wednesday, February 29, 2012

  Actual Average Record
Temperature  
Mean Temperature 52 °F -  
Max Temperature 62 °F 44 °F 62 °F (2004)
Min Temperature 43 °F 27 °F 28 °F (2008)
Degree Days  
Heating Degree Days 12    
Growing Degree Days 2 (Base 50)    
Moisture  
Dew Point 35 °F    
Average Humidity 55    
Maximum Humidity 100    
Minimum Humidity 34    
Precipitation  
Precipitation 0.05 in - - ()
Sea Level Pressure  
Sea Level Pressure 29.73 in    
Wind  
Wind Speed 19 mph (WSW)    
Max Wind Speed 30 mph    
Max Gust Speed 47 mph    
Visibility 10 miles    
Events Rain , Thunderstorm    
Averages and records for this station are not official NWS values.
T = Trace of Precipitation, MM = Missing Value Source: NWS Daily Summary

Daily Weather History Graph

Daily Weather History Graph

Search for Another Location

Airport:

Trip Planner

Search our weather history database for the weather conditions in past years. The results will help you decide how hot, cold, wet, or windy it might be!

Date:

Astronomy

Feb. 29, 2012 Rise Set
Actual Time 6:47 AM CST 6:06 PM CST
Civil Twilight 6:20 AM CST 6:33 PM CST
Nautical Twilight 5:49 AM CST 7:04 PM CST
Astronomical Twilight 5:18 AM CST 7:34 PM CST
Moon 10:43 AM CST (2/29) 12:49 AM CST (2/29)
Length of Visible Light 12h 12m
Length of Day
11h 19m
Waxing Crescent, 47% of the Moon is Illuminated
Feb 29
Waxing Crescent
Feb 29
First Quarter
Mar 8
Full
Mar 14
Last Quarter
Mar 22
New

Hourly Weather History & Observations

Time (CST) Temp. Windchill Dew Point Humidity Pressure Visibility Wind Dir Wind Speed Gust Speed Precip Events Conditions
12:02 AM 60.8 °F - 60.8 °F 100% 29.52 in 9.0 mi South 26.5 mph 34.5 mph N/A Rain , Thunderstorm Light Thunderstorms and Rain
12:16 AM 62.6 °F - 62.6 °F 100% 29.51 in 10.0 mi SW 19.6 mph 47.2 mph N/A Rain , Thunderstorm Light Rain
12:28 AM 60.8 °F - 60.8 °F 100% 29.56 in 10.0 mi SW 17.3 mph 24.2 mph N/A   Clear
12:55 AM 61.3 °F - 61.0 °F 99% 29.56 in 10.0 mi SW 17.3 mph 24.2 mph 0.04 in   Clear
1:55 AM 58.5 °F - 42.6 °F 56% 29.60 in 10.0 mi West 15.0 mph 25.3 mph N/A   Clear
2:55 AM 54.7 °F - 39.7 °F 57% 29.65 in 10.0 mi WSW 15.0 mph - N/A   Clear
3:55 AM 52.0 °F - 37.4 °F 58% 29.68 in 10.0 mi WSW 12.7 mph - N/A   Clear
4:55 AM 50.0 °F - 35.4 °F 57% 29.70 in 10.0 mi WSW 11.5 mph - N/A   Clear
5:55 AM 48.7 °F - 32.0 °F 52% 29.72 in 10.0 mi WSW 17.3 mph 23.0 mph N/A   Clear
6:55 AM 46.6 °F - 32.5 °F 58% 29.72 in 10.0 mi WSW 16.1 mph 26.5 mph N/A   Clear
7:55 AM 47.1 °F - 32.2 °F 56% 29.74 in 10.0 mi WSW 15.0 mph - N/A   Clear
8:55 AM 48.7 °F - 29.7 °F 48% 29.75 in 10.0 mi West 18.4 mph - N/A   Clear
9:55 AM 50.2 °F - 29.7 °F 45% 29.75 in 10.0 mi WSW 21.9 mph 27.6 mph N/A   Clear
10:55 AM 51.6 °F - 28.8 °F 41% 29.75 in 10.0 mi West 24.2 mph 35.7 mph N/A   Clear
11:55 AM 53.2 °F - 30.0 °F 41% 29.75 in 10.0 mi WSW 28.8 mph 35.7 mph 0.01 in   Clear
12:55 PM 54.5 °F - 29.1 °F 38% 29.74 in 10.0 mi WSW 26.5 mph 36.8 mph N/A   Clear
1:55 PM 55.4 °F - 29.5 °F 37% 29.73 in 10.0 mi WSW 25.3 mph 35.7 mph N/A   Clear
2:55 PM 56.1 °F - 28.6 °F 35% 29.75 in 10.0 mi West 29.9 mph 40.3 mph N/A   Clear
3:55 PM 55.9 °F - 28.0 °F 34% 29.77 in 10.0 mi West 27.6 mph 40.3 mph N/A   Clear
4:55 PM 55.2 °F - 27.5 °F 34% 29.78 in 10.0 mi West 27.6 mph 38.0 mph N/A   Clear
5:55 PM 53.4 °F - 27.9 °F 37% 29.81 in 10.0 mi West 17.3 mph 26.5 mph N/A   Clear
6:55 PM 52.0 °F - 26.8 °F 38% 29.83 in 10.0 mi West 12.7 mph 21.9 mph N/A   Clear
7:55 PM 48.0 °F - 28.6 °F 47% 29.85 in 10.0 mi WSW 8.1 mph - N/A   Clear
8:55 PM 47.8 °F - 28.2 °F 47% 29.86 in 10.0 mi West 10.4 mph - N/A   Clear
9:55 PM 44.8 °F 40.4 °F 28.8 °F 53% 29.88 in 10.0 mi West 8.1 mph - N/A   Clear
10:55 PM 43.2 °F 39.7 °F 28.2 °F 56% 29.90 in 10.0 mi WNW 5.8 mph - N/A   Clear
11:55 PM 43.5 °F 39.4 °F 28.6 °F 56% 29.90 in 10.0 mi WNW 6.9 mph - N/A   Clear